62,07/10/2015 10:08,1444212527,60.81242,-1.9116,3,3,07/10/2015 10:05,1444212311,11.856,3,12,0,0,60.8077,-1.9089,221,2
63,07/10/2015 17:06,1444237574,60.84376,-1.91406,2,6,07/10/2015 17:05,1444237509,11.856,3,12,0,0,60.8219,-1.8845,54,1
64,08/10/2015 07:06,1444288000,60.81242,-1.9116,9,2,08/10/2015 07:05,1444287938,11.813,3,12,0,0,60.7847,-1.9241,80,1
65,08/10/2015 07:08,1444288117,60.7949,-1.9116,3,5,08/10/2015 06:05,1444284346,11.813,3,12,0,0,60.7936,-1.9328,184,2
66,08/10/2015 08:08,1444291692,60.7949,-1.9116,3,3,08/10/2015 08:05,1444291513,11.813,3,12,0,0,60.7749,-1.9247,177,2
67,08/10/2015 08:08,1444291717,60.76357,-1.90915,3,5,08/10/2015 05:05,1444280717,11.856,3,12,0,0,60.8004,-1.9453,197,4
68,08/10/2015 09:08,1444295299,60.7646,-1.83577,3,6,08/10/2015 09:05,1444295114,11.813,3,12,0,0,60.7659,-1.9299,191,3
69,08/10/2015 13:05,1444309558,60.7147,-1.90671,7,3,08/10/2015 13:05,1444309531,11.899,3,12,0,0,60.7477,-1.9959,44,2
70,08/10/2015 13:09,1444309749,60.7312,-1.97999,3,2,08/10/2015 12:05,1444305913,11.856,3,12,0,0,60.7478,-1.9819,240,2
71,08/10/2015 14:10,1444313402,60.98038,-5.55604,206,3,08/10/2015 14:05,1444313114,11.899,3,12,0,0,60.7502,-2.0064,39,5
72,08/10/2015 16:06,1444320360,60.7312,-1.97999,3,2,08/10/2015 16:05,1444320313,11.856,3,12,0,0,60.7557,-2.0033,54,3
73,08/10/2015 16:06,1444320381,60.76251,-1.98252,3,3,08/10/2015 15:05,1444316733,11.856,3,12,0,0,60.7531,-2.0075,66,3
74,08/10/2015 16:06,1444320396,60.73226,-1.90671,3,3,08/10/2015 11:05,1444302309,11.856,3,12,0,0,60.7511,-1.963,88,2
75,08/10/2015 16:07,1444320431,60.76357,-1.90915,3,2,08/10/2015 10:05,1444298702,11.856,3,12,0,0,60.7573,-1.945,123,1
76,08/10/2015 17:06,1444323969,60.79384,-1.98507,6,3,08/10/2015 17:05,1444323912,11.856,3,12,0,0,60.7578,-1.9942,51,4
77,08/10/2015 19:06,1444331188,60.76357,-1.90915,8,3,08/10/2015 19:05,1444331144,11.856,3,12,0,0,60.76,-1.9755,65,3
78,08/10/2015 20:09,1444334966,60.73226,-1.90671,5,6,08/10/2015 20:05,1444334709,11.813,3,12,0,0,60.7605,-1.9682,1,1
79,08/10/2015 21:05,1444338323,60.79384,-1.98507,6,3,08/10/2015 21:05,1444338323,11.856,3,12,0,0,60.7603,-1.9654,18,2
80,08/10/2015 21:05,1444338358,60.81345,-1.83813,9,11,08/10/2015 18:05,1444327540,11.813,3,12,0,0,60.7592,-1.9844,48,2
81,08/10/2015 22:05,1444341915,60.76251,-1.98252,4,4,08/10/2015 22:05,1444341908,11.77,3,12,0,0,60.7596,-1.968,3,1
82,08/10/2015 23:09,1444345750,60.79273,-2.05853,8,3,08/10/2015 23:05,1444345511,11.77,3,12,0,0,60.7597,-1.9753,231,1
83,09/10/2015 00:09,1444349357,60.76357,-1.90915,3,3,09/10/2015 00:05,1444349113,11.77,3,12,0,0,60.7622,-1.9846,247,3
84,09/10/2015 01:07,1444352875,60.79273,-2.05853,4,2,09/10/2015 01:05,1444352700,11.77,3,12,0,0,60.7674,-1.9927,152,1
85,09/10/2015 02:05,1444356342,60.7949,-1.9116,2,3,09/10/2015 02:05,1444356302,11.77,3,12,0,0,60.7747,-1.9978,27,5
86,09/10/2015 03:08,1444360125,60.81242,-1.9116,3,3,09/10/2015 03:05,1444359952,11.727,3,12,0,0,60.7828,-1.997,204,2
87,09/10/2015 04:06,1444363578,60.79384,-1.98507,5,8,09/10/2015 04:05,1444363541,11.77,3,12,0,0,60.7922,-1.99,71,2
88,09/10/2015 10:07,1444385223,60.84376,-1.91406,12,4,09/10/2015 10:05,1444385142,11.813,3,12,0,0,60.8335,-1.9015,110,1
89,09/10/2015 10:08,1444385310,60.84479,-1.84049,7,4,09/10/2015 09:05,1444381547,11.77,3,12,0,0,60.8303,-1.9127,185,3
90,09/10/2015 10:10,1444385420,60.84578,-1.76692,3,2,09/10/2015 08:05,1444377942,11.77,3,12,0,0,60.8251,-1.9266,45,4
91,09/10/2015 12:09,1444392552,60.84376,-1.91406,3,3,09/10/2015 12:05,1444392312,11.813,3,12,0,0,60.8381,-1.9003,244,3
92,09/10/2015 15:06,1444403163,60.89363,-1.84286,7,8,09/10/2015 15:05,1444403152,11.813,3,12,0,0,60.8519,-1.9107,34,1
93,09/10/2015 15:06,1444403186,60.8926,-1.91652,5,5,09/10/2015 14:05,1444399505,11.813,3,12,0,0,60.8457,-1.9077,72,3
94,09/10/2015 15:06,1444403216,60.8926,-1.91652,4,3,09/10/2015 13:05,1444395957,11.856,3,12,0,0,60.8412,-1.9036,108,1
95,09/10/2015 16:07,1444406837,60.8926,-1.91652,4,2,09/10/2015 16:05,1444406743,11.77,3,12,0,0,60.8607,-1.9078,125,4
96,09/10/2015 17:05,1444410328,60.89363,-1.84286,5,3,09/10/2015 17:05,1444410312,11.77,3,12,0,0,60.8713,-1.8952,18,2
97,09/10/2015 18:09,1444414142,60.84479,-1.84049,12,2,09/10/2015 18:05,1444413942,11.727,3,12,0,0,60.8807,-1.8756,234,5
98,09/10/2015 19:06,1444417565,60.84376,-1.91406,5,3,09/10/2015 19:05,1444417542,11.727,3,12,0,0,60.8885,-1.8526,48,2
99,09/10/2015 20:05,1444421128,60.89462,-1.76919,4,3,09/10/2015 20:05,1444421143,11.684,3,12,0,0,60.8936,-1.8296,18,5
100,09/10/2015 21:08,1444424881,60.92693,-1.6977,4,5,09/10/2015 21:05,1444424712,11.684,3,12,0,0,60.8964,-1.8092,173,2
101,09/10/2015 22:05,1444428316,60.92693,-1.6977,6,2,09/10/2015 22:05,1444428309,11.684,3,12,0,0,60.8965,-1.7927,3,2
102,09/10/2015 23:05,1444431913,60.89462,-1.76919,3,2,09/10/2015 23:05,1444431914,11.684,3,12,0,0,60.8948,-1.7897,3,2
103,10/10/2015 00:05,1444435537,60.89462,-1.76919,9,2,10/10/2015 00:05,1444435542,11.684,3,12,0,0,60.8919,-1.7927,18,2
104,10/10/2015 01:06,1444439205,60.84747,-4.42129,153,2,10/10/2015 01:05,1444439111,11.684,3,12,0,0,60.8905,-1.8022,96,2
105,10/10/2015 02:05,1444442727,60.89462,-1.76919,5,2,10/10/2015 02:05,1444442706,11.684,3,12,0,0,60.8911,-1.8144,18,3
106,10/10/2015 03:05,1444446320,60.92499,-1.84523,4,2,10/10/2015 03:05,1444446354,11.684,3,12,0,0,60.8937,-1.8228,3,3
107,10/10/2015 04:05,1444449953,60.89462,-1.76919,3,5,10/10/2015 04:05,1444449941,11.684,3,12,0,0,60.8981,-1.8252,36,3
108,10/10/2015 05:06,1444453592,60.89462,-1.76919,3,3,10/10/2015 05:05,1444453520,11.727,3,12,0,0,60.9045,-1.8217,82,2
109,10/10/2015 06:06,1444457188,60.92693,-1.6977,2,3,10/10/2015 06:05,1444457113,11.727,3,12,0,0,60.9123,-1.8112,71,2
110,10/10/2015 07:07,1444460879,60.92499,-1.84523,5,3,10/10/2015 07:05,1444460717,11.727,3,12,0,0,60.9193,-1.7948,159,2
111,10/10/2015 08:05,1444464318,60.92598,-1.77147,3,2,10/10/2015 08:05,1444464303,11.77,3,12,0,0,60.9271,-1.7744,3,2
112,10/10/2015 09:05,1444467920,60.92693,-1.6977,3,2,10/10/2015 09:05,1444467903,11.727,3,12,0,0,60.9336,-1.7534,3,2
113,10/10/2015 10:06,1444471603,60.92693,-1.6977,5,3,10/10/2015 10:05,1444471542,11.77,3,12,0,0,60.9373,-1.7369,85,3
114,10/10/2015 11:07,1444475220,60.92693,-1.6977,5,2,10/10/2015 11:05,1444475106,11.77,3,12,0,0,60.9406,-1.7266,101,3
115,10/10/2015 13:06,1444482363,60.97576,-1.69989,6,3,10/10/2015 13:05,1444482309,11.813,3,12,0,0,60.9437,-1.7191,50,1
116,10/10/2015 13:06,1444482419,60.97576,-1.69989,3,4,10/10/2015 12:05,1444478713,11.813,3,12,0,0,60.9426,-1.7213,97,2
117,10/10/2015 14:05,1444485946,60.92598,-1.77147,7,5,10/10/2015 14:05,1444485914,11.813,3,12,0,0,60.9445,-1.7184,37,1
118,10/10/2015 15:05,1444489514,60.92693,-1.6977,4,3,10/10/2015 15:05,1444489546,11.813,3,12,0,0,60.946,-1.719,3,2
119,10/10/2015 16:05,1444493111,60.92693,-1.6977,4,3,10/10/2015 16:05,1444493100,11.813,3,12,0,0,60.9497,-1.7189,3,3
120,10/10/2015 17:06,1444496769,60.97576,-1.69989,2,2,10/10/2015 17:05,1444496712,11.77,3,12,0,0,60.9557,-1.7112,61,2
121,10/10/2015 18:05,1444500320,60.97667,-1.62602,9,2,10/10/2015 18:05,1444500306,11.77,3,12,0,0,60.9639,-1.6967,3,2
122,10/10/2015 19:05,1444503918,60.97754,-1.55215,2,3,10/10/2015 19:05,1444503908,11.727,3,12,0,0,60.9718,-1.6689,3,4
123,10/10/2015 20:07,1444507643,61.00807,-1.62812,4,3,10/10/2015 20:05,1444507511,11.77,3,12,0,0,60.9802,-1.6424,129,2
124,10/10/2015 21:05,1444511122,60.97667,-1.62602,3,2,10/10/2015 21:05,1444511113,11.77,3,12,0,0,60.9877,-1.6144,3,1
125,10/10/2015 22:05,1444514728,61.01131,-1.33222,11,2,10/10/2015 22:05,1444514746,11.727,3,12,0,0,60.9923,-1.5881,18,3
126,10/10/2015 23:06,1444518373,61.05687,-1.63023,6,3,10/10/2015 23:05,1444518302,11.727,3,12,0,0,60.9957,-1.5699,65,2
127,11/10/2015 00:08,1444522118,60.97916,-1.40439,12,3,11/10/2015 00:05,1444521944,11.727,3,12,0,0,60.9979,-1.5567,210,1
128,11/10/2015 02:05,1444529134,61.02717,-1.48018,5,3,11/10/2015 02:05,1444529110,11.77,3,12,0,0,61,-1.5433,18,4
129,11/10/2015 02:06,1444529167,61.05858,-1.4821,5,3,11/10/2015 01:05,1444525535,11.77,3,12,0,0,60.9995,-1.5488,60,2
130,11/10/2015 03:05,1444532735,61.05858,-1.4821,19,2,11/10/2015 03:05,1444532738,11.727,3,12,0,0,61.0012,-1.5397,20,4
131,11/10/2015 04:06,1444536380,61.00977,-1.48018,2,3,11/10/2015 04:05,1444536307,11.727,3,12,0,0,61.0026,-1.5331,67,3
132,11/10/2015 05:07,1444540065,60.98212,-3.10603,108,2,11/10/2015 05:05,1444539902,11.727,2,12,0,0,61.005,-1.5216,156,4
133,11/10/2015 06:05,1444543513,61.02717,-1.48018,2,3,11/10/2015 06:05,1444543532,11.727,2,12,0,0,61.0091,-1.5056,3,3
134,11/10/2015 07:05,1444547112,61.01789,0,157,2,11/10/2015 07:05,1444547112,11.684,2,12,0,0,61.0144,-1.485,3,2
135,11/10/2015 08:06,1444550787,61.02717,-1.48018,5,3,11/10/2015 08:05,1444550700,11.684,2,12,0,0,0,0,81,5
136,11/10/2015 09:05,1444554338,61.02717,-1.48018,5,2,11/10/2015 09:05,1444554308,11.727,3,12,0,0,61.0259,-1.4377,21,2
137,11/10/2015 10:05,1444557940,61.06012,-1.33394,5,4,11/10/2015 10:05,1444557909,11.727,3,12,0,0,61.0303,-1.4176,34,3
138,11/10/2015 11:05,1444561510,61.06012,-1.33394,10,2,11/10/2015 11:05,1444561510,11.727,3,12,0,0,61.0335,-1.4036,3,3
139,11/10/2015 12:06,1444565175,61.01131,-1.33222,8,5,11/10/2015 12:05,1444565144,11.727,3,12,0,0,61.0364,-1.3964,55,1
140,11/10/2015 13:05,1444568719,61.02796,-1.4062,7,3,11/10/2015 13:05,1444568728,11.77,3,12,0,0,61.0397,-1.3965,3,5
141,11/10/2015 14:05,1444572324,61.06012,-1.33394,3,3,11/10/2015 14:05,1444572308,11.77,3,12,0,0,61.0436,-1.3993,18,3
142,11/10/2015 15:06,1444575988,61.01056,-1.4062,7,4,11/10/2015 15:05,1444575908,11.727,3,12,0,0,61.0483,-1.4022,72,3
143,11/10/2015 16:05,1444579520,61.05858,-1.4821,17,3,11/10/2015 16:05,1444579517,11.727,3,12,0,0,61.0528,-1.4017,3,2
144,11/10/2015 17:06,1444583175,61.09227,-1.26149,9,2,11/10/2015 17:05,1444583103,11.727,3,12,0,0,61.058,-1.3941,68,3
145,11/10/2015 18:05,1444586728,61.05858,-1.4821,4,3,11/10/2015 18:05,1444586709,11.727,3,12,0,0,61.0639,-1.381,18,5
146,11/10/2015 19:05,1444590307,61.06012,-1.33394,9,2,11/10/2015 19:05,1444590344,11.684,3,12,0,0,61.0707,-1.363,3,5
147,11/10/2015 20:05,1444593909,61.06083,-1.25986,3,3,11/10/2015 20:05,1444593912,11.684,3,12,0,0,61.0767,-1.3412,3,3
148,11/10/2015 21:05,1444597511,61.10962,-1.26149,3,3,11/10/2015 21:05,1444597501,11.684,3,12,0,0,61.0832,-1.3174,3,4
149,11/10/2015 22:05,1444601114,61.06083,-1.25986,4,3,11/10/2015 22:05,1444601102,11.684,3,12,0,0,61.0888,-1.2979,3,1
150,11/10/2015 23:05,1444604756,61.09294,-1.18731,3,3,11/10/2015 23:05,1444604724,11.684,3,12,0,0,61.0929,-1.2845,44,1
151,12/10/2015 00:05,1444608309,61.14173,-1.18885,5,2,12/10/2015 00:05,1444608308,11.684,3,12,0,0,61.0963,-1.2769,3,3
152,12/10/2015 01:05,1444611921,61.14173,-1.18885,13,2,12/10/2015 01:05,1444611909,11.684,3,12,0,0,61.0995,-1.2793,3,2
153,12/10/2015 02:05,1444615518,61.11029,-1.18731,2,3,12/10/2015 02:05,1444615544,11.684,3,12,0,0,61.1042,-1.2858,3,5
154,12/10/2015 03:07,1444619232,61.14173,-1.18885,5,3,12/10/2015 03:05,1444619132,11.684,3,12,0,0,61.1124,-1.2974,124,1
155,12/10/2015 04:05,1444622727,61.10962,-1.26149,6,2,12/10/2015 04:05,1444622758,11.684,3,12,0,0,61.1184,-1.2989,19,4
156,12/10/2015 05:05,1444626326,60.95213,-5.47535,256,4,12/10/2015 05:05,1444626307,11.684,2,12,0,0,61.1274,-1.2963,19,1
157,12/10/2015 06:05,1444629908,61.14106,-1.26313,7,2,12/10/2015 06:05,1444629940,11.641,2,12,0,0,61.1368,-1.2855,3,2
158,12/10/2015 07:05,1444633518,61.13959,-1.41167,12,2,12/10/2015 07:05,1444633510,11.641,2,12,0,0,61.1439,-1.266,3,5
159,12/10/2015 08:05,1444637109,61.14173,-1.18885,3,2,12/10/2015 08:05,1444637109,11.641,2,12,0,0,61.1492,-1.241,3,2
160,12/10/2015 09:05,1444640711,61.08917,1.55818,173,3,12/10/2015 09:05,1444640711,11.641,3,12,0,0,61.1509,-1.2154,3,3
161,12/10/2015 10:05,1444644330,61.14237,-1.11456,6,5,12/10/2015 10:05,1444644344,11.684,3,12,0,0,61.1502,-1.194,21,3
162,12/10/2015 11:06,1444647962,61.14237,-1.11456,3,2,12/10/2015 11:05,1444647912,11.684,3,12,0,0,61.1492,-1.1847,56,5
163,12/10/2015 12:05,1444651510,61.11029,-1.18731,5,2,12/10/2015 12:05,1444651552,11.684,3,12,0,0,61.1488,-1.1833,3,2
164,12/10/2015 13:05,1444655158,61.11029,-1.18731,6,3,12/10/2015 13:05,1444655143,11.684,3,12,0,0,61.1493,-1.1926,53,1
165,12/10/2015 14:05,1444658723,61.14173,-1.18885,15,2,12/10/2015 14:05,1444658709,11.684,3,12,0,0,61.1514,-1.2084,3,4
166,12/10/2015 15:05,1444662340,61.19114,-1.11601,14,3,12/10/2015 15:05,1444662354,11.684,3,12,0,0,61.1549,-1.2278,22,2
167,12/10/2015 16:05,1444665928,61.18983,-1.26477,6,2,12/10/2015 16:05,1444665900,11.641,3,12,0,0,61.1606,-1.2437,18,3
168,12/10/2015 17:05,1444669519,61.1905,-1.19039,5,2,12/10/2015 17:05,1444669542,11.641,3,12,0,0,61.1691,-1.2509,3,4
169,12/10/2015 18:05,1444673138,61.1905,-1.19039,5,2,12/10/2015 18:05,1444673112,11.641,3,12,0,0,61.1761,-1.2452,20,1
170,12/10/2015 19:05,1444676721,61.14173,-1.18885,3,3,12/10/2015 19:05,1444676701,11.641,3,12,0,0,61.1814,-1.2288,3,3
171,12/10/2015 20:05,1444680355,61.2232,-1.04298,13,3,12/10/2015 20:05,1444680331,11.598,3,12,0,0,61.1828,-1.2044,37,1
172,12/10/2015 21:05,1444683910,61.19114,-1.11601,3,3,12/10/2015 21:05,1444683945,11.641,3,12,0,0,61.1809,-1.1803,3,3
173,12/10/2015 22:05,1444687511,61.2226,-1.11746,6,3,12/10/2015 22:05,1444687512,11.598,3,12,0,0,61.1758,-1.1575,3,5
174,12/10/2015 23:05,1444691127,61.19114,-1.11601,2,3,12/10/2015 23:05,1444691110,11.598,3,12,0,0,61.1673,-1.142,18,3
175,13/10/2015 00:05,1444694712,61.14106,-1.26313,18,3,13/10/2015 00:05,1444694712,11.598,3,12,0,0,61.1587,-1.1399,3,2
176,13/10/2015 01:06,1444698403,61.19114,-1.11601,4,3,13/10/2015 01:05,1444698338,11.598,3,12,0,0,61.1517,-1.1495,96,3
177,13/10/2015 02:05,1444701910,61.14237,-1.11456,5,2,13/10/2015 02:05,1444701912,11.641,3,12,0,0,61.1481,-1.1697,3,5
178,13/10/2015 03:05,1444705507,61.14173,-1.18885,3,3,13/10/2015 03:05,1444705523,11.598,3,12,0,0,61.1484,-1.1953,3,5
179,13/10/2015 04:05,1444709108,61.14173,-1.18885,6,2,13/10/2015 04:05,1444709139,11.598,3,12,0,0,61.1525,-1.2165,3,4
180,13/10/2015 05:06,1444712807,61.18983,-1.26477,4,2,13/10/2015 05:05,1444712708,11.598,3,12,0,0,61.1581,-1.2269,96,2
181,13/10/2015 06:05,1444716350,61.1905,-1.19039,2,2,13/10/2015 06:05,1444716342,11.598,3,12,0,0,61.1642,-1.2263,41,4
182,13/10/2015 07:05,1444719922,61.18836,-1.41351,72,2,13/10/2015 07:05,1444719914,11.598,3,12,0,0,61.1696,-1.2124,3,1
183,13/10/2015 08:05,1444723514,61.1905,-1.19039,3,4,13/10/2015 08:05,1444723512,11.555,3,12,0,0,61.1729,-1.1895,3,1
184,13/10/2015 09:05,1444727120,61.14237,-1.11456,3,3,13/10/2015 09:05,1444727116,11.598,2,12,0,0,61.1743,-1.1597,3,4
185,13/10/2015 10:05,1444730720,61.14296,-1.04028,2,2,13/10/2015 10:05,1444730732,11.598,2,12,0,0,61.172,-1.1332,3,2
186,13/10/2015 11:06,1444734378,61.14237,-1.11456,6,2,13/10/2015 11:05,1444734311,11.598,2,12,0,0,61.1683,-1.1124,68,5
187,13/10/2015 12:10,1444738203,61.19173,-1.04163,7,3,13/10/2015 12:05,1444737943,11.598,2,12,0,0,61.164,-1.1005,28,2
188,13/10/2015 13:05,1444741540,61.19228,-0.96724,16,4,13/10/2015 13:05,1444741541,11.641,3,12,0,0,61.1597,-1.1018,18,1
189,13/10/2015 14:05,1444745113,61.14296,-1.04028,3,6,13/10/2015 14:05,1444745113,11.598,3,12,0,0,61.157,-1.1149,3,2
190,13/10/2015 15:05,1444748736,61.14237,-1.11456,7,3,13/10/2015 15:05,1444748706,11.555,3,12,0,0,61.1571,-1.1375,18,2
191,13/10/2015 16:05,1444752313,61.14237,-1.11456,3,4,13/10/2015 16:05,1444752341,11.555,3,12,0,0,61.1612,-1.1596,3,3
192,13/10/2015 17:05,1444755913,61.18983,-1.26477,4,4,13/10/2015 17:05,1444755942,11.512,3,12,0,0,61.169,-1.1754,3,3
193,13/10/2015 18:05,1444759555,61.1905,-1.19039,32,2,13/10/2015 18:05,1444759541,11.512,3,12,0,0,61.1776,-1.1807,37,5
194,13/10/2015 19:06,1444763178,61.19114,-1.11601,2,2,13/10/2015 19:05,1444763128,11.512,3,12,0,0,61.1863,-1.1742,67,4
195,13/10/2015 20:05,1444766722,61.19114,-1.11601,5,2,13/10/2015 20:05,1444766742,11.512,3,12,0,0,61.1937,-1.157,3,5
196,13/10/2015 21:05,1444770313,61.2226,-1.11746,2,2,13/10/2015 21:05,1444770342,11.512,3,12,0,0,61.1988,-1.1314,3,1
197,13/10/2015 22:06,1444774004,61.1905,-1.19039,14,3,13/10/2015 22:05,1444773912,11.512,3,12,0,0,61.202,-1.106,85,3
198,13/10/2015 23:05,1444777517,61.22375,-0.9685,2,3,13/10/2015 23:05,1444777520,11.512,3,12,0,0,61.2028,-1.0848,3,1
199,14/10/2015 00:06,1444781179,61.2232,-1.04298,7,2,14/10/2015 00:05,1444781141,11.512,3,12,0,0,61.2025,-1.0759,69,5
200,14/10/2015 01:06,1444784776,61.19228,-0.96724,3,3,14/10/2015 01:05,1444784711,11.512,3,12,0,0,61.2032,-1.078,54,1
201,14/10/2015 02:05,1444788349,61.22375,-0.9685,5,3,14/10/2015 02:05,1444788349,11.512,3,12,0,0,61.2047,-1.0893,40,4
202,14/10/2015 03:05,1444791918,61.24048,-1.04298,7,3,14/10/2015 03:05,1444791929,11.555,3,12,0,0,61.2091,-1.1081,3,5
203,14/10/2015 04:05,1444795521,61.30499,-0.82166,8,3,14/10/2015 04:05,1444795542,11.555,3,12,0,0,61.2145,-1.1278,3,4
204,14/10/2015 05:07,1444799221,61.2232,-1.04298,3,3,14/10/2015 05:05,1444799142,11.555,4,12,0,0,61.2215,-1.1422,111,5
205,14/10/2015 06:05,1444802714,61.23989,-1.11746,2,3,14/10/2015 06:05,1444802722,11.598,4,12,0,0,61.2336,-1.1513,3,4
206,14/10/2015 07:05,1444806328,61.38838,-4.12297,188,2,14/10/2015 07:05,1444806342,11.598,4,12,0,0,61.2432,-1.1472,19,3
207,14/10/2015 08:07,1444810045,61.27136,-1.11892,4,2,14/10/2015 08:05,1444809901,11.598,4,12,0,0,61.2527,-1.1334,126,4
208,14/10/2015 09:06,1444813588,61.2232,-1.04298,379,2,14/10/2015 09:05,1444813500,11.641,3,12,0,0,61.2604,-1.1128,75,1
209,14/10/2015 10:06,1444817168,61.27251,-0.96976,4,2,14/10/2015 10:05,1444817112,11.641,3,12,0,0,61.2666,-1.086,63,3
210,14/10/2015 11:05,1444820734,61.24048,-1.04298,3,2,14/10/2015 11:05,1444820742,11.641,3,12,0,0,61.2696,-1.0602,19,3
211,14/10/2015 12:06,1444824391,61.27195,-1.04434,6,3,14/10/2015 12:05,1444824306,11.598,3,12,0,0,61.2696,-1.0416,71,2
212,14/10/2015 13:05,1444827947,61.27302,-0.89517,19,2,14/10/2015 13:05,1444827907,11.641,3,12,0,0,61.2694,-1.0311,36,1
213,14/10/2015 14:06,1444831578,61.27251,-0.96976,2,4,14/10/2015 14:05,1444831513,11.598,3,12,0,0,61.2699,-1.0317,67,1
214,14/10/2015 15:05,1444835124,61.27195,-1.04434,4,3,14/10/2015 15:05,1444835128,11.598,3,12,0,0,61.2747,-1.0417,3,2
215,14/10/2015 16:05,1444838713,61.27195,-1.04434,9,2,14/10/2015 16:05,1444838739,11.555,3,12,0,0,61.2743,-1.0501,3,5
216,14/10/2015 17:05,1444842355,61.30499,-0.82166,22,3,14/10/2015 17:05,1444842341,11.555,3,12,0,0,61.2802,-1.0633,34,1
217,14/10/2015 18:07,1444846021,61.30285,-1.12037,77,2,14/10/2015 18:05,1444845931,11.555,3,12,0,0,61.2886,-1.0722,114,2
218,14/10/2015 19:05,1444849517,61.38246,-1.19817,12,3,14/10/2015 19:05,1444849538,11.555,3,12,0,0,61.2984,-1.0705,3,1
219,14/10/2015 20:05,1444853112,61.304,-0.97102,3,2,14/10/2015 20:05,1444853109,11.512,3,12,0,0,61.3074,-1.0544,3,2
220,14/10/2015 21:05,1444856720,61.35325,-0.89751,3,2,14/10/2015 21:05,1444856713,11.512,3,12,0,0,61.3129,-1.0254,3,2
221,14/10/2015 22:05,1444860337,61.304,-0.97102,3,2,14/10/2015 22:05,1444860312,11.512,3,12,0,0,61.3154,-0.9939,18,4
222,14/10/2015 23:05,1444863912,61.32124,-0.97102,4,3,14/10/2015 23:05,1444863907,11.512,3,12,0,0,61.3171,-0.9642,3,2
223,15/10/2015 00:05,1444867527,61.35325,-0.89751,5,2,15/10/2015 00:05,1444867505,11.512,3,12,0,0,61.3168,-0.9432,20,2
224,15/10/2015 01:05,1444871146,61.35325,-0.89751,9,3,15/10/2015 01:05,1444871115,11.512,2,12,0,0,61.3146,-0.9294,22,2
225,15/10/2015 02:05,1444874720,61.32222,-0.82166,3,3,15/10/2015 02:05,1444874716,11.512,2,12,0,0,61.3129,-0.9261,3,3
226,15/10/2015 03:05,1444878312,61.30451,-0.89634,2,3,15/10/2015 03:05,1444878302,11.512,2,12,0,0,61.3107,-0.9292,3,4
227,15/10/2015 04:05,1444881942,61.30451,-0.89634,5,2,15/10/2015 04:05,1444881901,11.512,2,12,0,0,0,0,36,2
228,15/10/2015 05:06,1444885584,61.30451,-0.89634,6,3,15/10/2015 05:05,1444885538,11.512,3,12,0,0,61.3149,-0.9567,80,1
229,15/10/2015 06:05,1444889136,61.32222,-0.82166,7,2,15/10/2015 06:05,1444889134,11.512,3,12,0,0,61.3209,-0.9697,18,1
230,15/10/2015 07:05,1444892738,61.32124,-0.97102,10,4,15/10/2015 07:05,1444892708,11.512,3,12,0,0,61.328,-0.9745,18,2
231,15/10/2015 08:06,1444896398,61.30451,-0.89634,5,4,15/10/2015 08:05,1444896328,11.512,3,12,0,0,61.3367,-0.9661,87,3
232,15/10/2015 09:05,1444899928,61.44412,-2.55147,114,3,15/10/2015 09:05,1444899900,11.512,3,12,0,0,61.3437,-0.9428,19,2
233,15/10/2015 10:05,1444903553,61.32175,-0.89634,5,2,15/10/2015 10:05,1444903513,11.469,3,12,0,0,61.3462,-0.9143,34,3
234,15/10/2015 11:05,1444907158,61.35325,-0.89751,3,3,15/10/2015 11:05,1444907129,11.512,3,12,0,0,61.3446,-0.8838,37,3
235,15/10/2015 12:05,1444910714,61.32222,-0.82166,5,2,15/10/2015 12:05,1444910713,11.469,3,12,0,0,61.3413,-0.8624,3,3
236,15/10/2015 13:06,1444914363,61.30451,-0.89634,5,2,15/10/2015 13:05,1444914348,11.469,2,12,0,0,61.3366,-0.8485,51,5
237,15/10/2015 14:05,1444917913,61.30499,-0.82166,9,5,15/10/2015 14:05,1444917922,11.469,2,12,0,0,61.3318,-0.8435,3,2
238,15/10/2015 15:05,1444921554,61.30451,-0.89634,3,4,15/10/2015 15:05,1444921542,11.426,2,12,0,0,61.3267,-0.8466,43,2
239,15/10/2015 16:05,1444925138,61.35372,-0.82273,6,3,15/10/2015 16:05,1444925112,11.426,2,12,0,0,61.3226,-0.8558,21,2
240,15/10/2015 17:07,1444928820,61.35416,-0.74794,4,2,15/10/2015 17:05,1444928717,11.383,3,12,0,0,61.3198,-0.8692,96,2
241,15/10/2015 18:05,1444932339,61.32222,-0.82166,4,3,15/10/2015 18:05,1444932344,11.426,3,12,0,0,61.3198,-0.8836,19,4
242,15/10/2015 19:05,1444935911,61.30499,-0.82166,3,2,15/10/2015 19:05,1444935914,11.383,3,12,0,0,61.3222,-0.8942,3,5
243,15/10/2015 20:06,1444939601,61.29841,-1.56833,809,2,15/10/2015 20:05,1444939509,11.383,3,12,0,0,61.327,-0.8973,90,3
244,15/10/2015 21:05,1444943112,61.35372,-0.82273,3,2,15/10/2015 21:05,1444943108,11.426,3,12,0,0,61.3331,-0.8891,3,1
245,15/10/2015 22:09,1444946942,61.35372,-0.82273,3,2,15/10/2015 22:05,1444946722,11.426,3,12,0,0,61.3379,-0.8728,225,1
246,15/10/2015 23:06,1444950360,61.35325,-0.89751,2,6,15/10/2015 23:05,1444950344,11.469,3,12,0,0,61.3383,-0.8527,52,2
247,16/10/2015 00:05,1444953912,61.35372,-0.82273,3,3,16/10/2015 00:05,1444953926,11.426,3,12,0,0,61.3359,-0.8481,3,4
248,16/10/2015 01:08,1444957712,61.32222,-0.82166,2,4,16/10/2015 01:05,1444957545,11.426,3,12,0,0,61.335,-0.8175,207,5
249,16/10/2015 02:06,1444961164,61.35416,-0.74794,4,2,16/10/2015 02:05,1444961101,11.426,3,12,0,0,61.333,-0.8145,58,3
250,16/10/2015 03:05,1444964712,61.35372,-0.82273,3,2,16/10/2015 03:05,1444964712,11.426,3,12,0,0,61.3309,-0.8181,3,4
251,16/10/2015 04:05,1444968327,61.30542,-0.74697,10,2,16/10/2015 04:05,1444968313,11.383,3,12,0,0,61.3302,-0.8263,14,1
252,16/10/2015 05:06,1444971960,61.35372,-0.82273,4,2,16/10/2015 05:05,1444971932,11.383,3,12,0,0,61.3317,-0.8382,52,4
253,16/10/2015 06:05,1444975519,61.32265,-0.74697,3,2,16/10/2015 06:05,1444975545,11.426,3,12,0,0,61.3339,-0.8512,3,1
254,16/10/2015 07:10,1444979410,61.35325,-0.89751,3,3,16/10/2015 07:05,1444979102,11.383,3,12,0,0,61.3381,-0.8609,35,1
255,16/10/2015 08:05,1444982757,61.35325,-0.89751,2,3,16/10/2015 08:05,1444982703,11.469,3,12,0,0,61.3445,-0.8606,38,1
256,16/10/2015 09:06,1444986398,61.35416,-0.74794,3,3,16/10/2015 09:05,1444986338,11.426,3,12,0,0,61.35,-0.8497,89,4
257,16/10/2015 10:05,1444989911,61.35416,-0.74794,2,2,16/10/2015 10:05,1444989910,11.426,3,12,0,0,61.3538,-0.8288,3,5
258,16/10/2015 11:06,1444993603,61.42555,-1.72435,88,5,16/10/2015 11:05,1444993544,11.383,3,11.9,0,0,61.3556,-0.8005,96,2
259,16/10/2015 12:07,1444997226,61.35416,-0.74794,4,4,16/10/2015 12:05,1444997144,11.426,3,12,0,0,61.3521,-0.7701,116,1
260,16/10/2015 13:05,1445000742,61.42458,-1.79928,114,3,16/10/2015 13:05,1445000708,11.426,3,12,0,0,61.3464,-0.7462,34,3
261,16/10/2015 14:05,1445004309,61.32304,-0.67228,2,2,16/10/2015 14:05,1445004322,11.34,3,11.9,0,0,61.3384,-0.7321,3,3
262,16/10/2015 15:05,1445007913,61.27546,0.37301,81,3,16/10/2015 15:05,1445007907,11.34,3,12,0,0,61.3306,-0.73,3,3